Year,Month,Day,Hour,Minute,Value (Times are PST for temperature in C)
2012,10,16,12,19,12.50
2012,10,16,12,20,12.50
2012,10,16,12,21,12.50
2012,10,16,12,22,12.40
2012,10,16,12,23,12.40
2012,10,16,12,24,12.30
2012,10,16,12,25,12.30
2012,10,16,12,26,12.20
2012,10,16,12,27,12.20
2012,10,16,12,28,12.20
2012,10,16,12,29,12.10
2012,10,16,12,30,12.10
2012,10,16,12,31,12.10
2012,10,16,12,32,12.00
2012,10,16,12,33,12.00
2012,10,16,12,34,12.00
2012,10,16,12,35,12.00
2012,10,16,12,36,11.90
2012,10,16,12,37,11.90
2012,10,16,12,38,11.90
2012,10,16,12,39,11.90
2012,10,16,12,40,11.80
2012,10,16,12,41,11.80
2012,10,16,12,42,11.80
2012,10,16,12,43,11.80
2012,10,16,12,44,11.80
2012,10,16,12,45,11.80
2012,10,16,12,46,11.80
2012,10,16,12,47,11.80
2012,10,16,12,48,11.80
2012,10,16,12,49,11.80
2012,10,16,12,50,11.80
2012,10,16,12,51,11.80
2012,10,16,12,52,11.80
2012,10,16,12,53,11.80
2012,10,16,12,54,11.80
2012,10,16,12,55,11.80
2012,10,16,12,56,11.80
2012,10,16,12,57,11.80
2012,10,16,12,58,11.80
2012,10,16,12,59,11.90
2012,10,16,13,00,11.90
2012,10,16,13,01,11.80
2012,10,16,13,02,11.80
2012,10,16,13,03,11.80
2012,10,16,13,04,11.80
2012,10,16,13,05,11.90
2012,10,16,13,06,11.90
2012,10,16,13,07,12.00
2012,10,16,13,08,12.00
2012,10,16,13,09,11.90
2012,10,16,13,10,11.90
2012,10,16,13,11,11.90
2012,10,16,13,12,11.90
2012,10,16,13,13,12.00
2012,10,16,13,14,12.00
2012,10,16,13,15,12.00
2012,10,16,13,16,12.00
2012,10,16,13,17,12.00
2012,10,16,13,18,12.10
2012,10,16,13,19,12.00
2012,10,16,13,20,12.00
2012,10,16,13,21,12.00
2012,10,16,13,22,12.00
2012,10,16,13,23,11.90
2012,10,16,13,24,11.90
2012,10,16,13,25,11.90
2012,10,16,13,26,11.90
2012,10,16,13,27,12.00
2012,10,16,13,28,12.00
2012,10,16,13,29,12.10
2012,10,16,13,30,12.10
2012,10,16,13,31,12.20
2012,10,16,13,32,12.20
2012,10,16,13,33,12.30
2012,10,16,13,34,12.30
2012,10,16,13,35,12.30
2012,10,16,13,36,12.40
2012,10,16,13,37,12.50
2012,10,16,13,38,12.50
2012,10,16,13,39,12.60
2012,10,16,13,40,12.60
2012,10,16,13,41,12.70
2012,10,16,13,42,12.80
2012,10,16,13,43,12.80
2012,10,16,13,44,12.80
2012,10,16,13,45,12.80
2012,10,16,13,46,12.80
2012,10,16,13,47,12.80
2012,10,16,13,48,12.80
2012,10,16,13,49,12.80
2012,10,16,13,50,12.80
2012,10,16,13,51,12.80
2012,10,16,13,52,12.80
2012,10,16,13,53,12.80
2012,10,16,13,54,12.70
2012,10,16,13,55,12.70
2012,10,16,13,56,12.70
2012,10,16,13,57,12.70
2012,10,16,13,58,12.70
2012,10,16,13,59,12.70
2012,10,16,14,00,12.80
2012,10,16,14,01,12.80
2012,10,16,14,02,12.80
2012,10,16,14,03,12.90
2012,10,16,14,04,12.90
2012,10,16,14,05,12.90
2012,10,16,14,06,12.90
2012,10,16,14,07,12.80
2012,10,16,14,08,12.80
2012,10,16,14,09,12.80
2012,10,16,14,10,12.80
2012,10,16,14,11,12.90
2012,10,16,14,12,13.00
2012,10,16,14,13,13.00
2012,10,16,14,14,13.10
2012,10,16,14,15,13.10
2012,10,16,14,16,13.10
2012,10,16,14,17,13.10
2012,10,16,14,18,13.10
2012,10,16,14,19,13.10
2012,10,16,14,20,13.10
2012,10,16,14,21,13.20
2012,10,16,14,22,13.30
2012,10,16,14,23,13.30
2012,10,16,14,24,13.30
2012,10,16,14,25,13.30
2012,10,16,14,26,13.30
2012,10,16,14,27,13.30
2012,10,16,14,28,13.30
2012,10,16,14,29,13.40
2012,10,16,14,30,13.40
2012,10,16,14,31,13.40
2012,10,16,14,32,13.40
2012,10,16,14,33,13.40
2012,10,16,14,34,13.40
2012,10,16,14,35,13.40
2012,10,16,14,36,13.50
2012,10,16,14,37,13.50
2012,10,16,14,38,13.50
2012,10,16,14,39,13.60
2012,10,16,14,40,13.60
2012,10,16,14,41,13.50
2012,10,16,14,42,13.50
2012,10,16,14,43,13.50
2012,10,16,14,44,13.50
2012,10,16,14,45,13.50
2012,10,16,14,46,13.50
2012,10,16,14,47,13.50
2012,10,16,14,48,13.50
2012,10,16,14,49,13.60
2012,10,16,14,50,13.60
2012,10,16,14,51,13.60
2012,10,16,14,52,13.70
2012,10,16,14,53,13.70
2012,10,16,14,54,13.70
2012,10,16,14,55,13.70
2012,10,16,14,56,13.70
2012,10,16,14,57,13.70
2012,10,16,14,58,13.80
2012,10,16,14,59,13.80
2012,10,16,15,00,13.80
2012,10,16,15,01,13.80
2012,10,16,15,02,13.80
2012,10,16,15,03,13.80
2012,10,16,15,04,13.80
2012,10,16,15,05,13.80
2012,10,16,15,06,13.80
2012,10,16,15,07,13.80
2012,10,16,15,08,13.90
2012,10,16,15,09,13.90
2012,10,16,15,10,14.00
2012,10,16,15,11,14.00
2012,10,16,15,12,14.00
2012,10,16,15,13,14.00
2012,10,16,15,14,14.00
2012,10,16,15,15,13.90
2012,10,16,15,16,13.90
2012,10,16,15,17,13.90
2012,10,16,15,18,13.90
2012,10,16,15,19,13.90
2012,10,16,15,20,13.90
2012,10,16,15,21,13.90
2012,10,16,15,22,14.00
2012,10,16,15,23,14.00
2012,10,16,15,24,14.00
2012,10,16,15,25,13.90
2012,10,16,15,26,13.90
2012,10,16,15,27,13.90
2012,10,16,15,28,13.90
2012,10,16,15,29,14.00
2012,10,16,15,30,14.10
2012,10,16,15,31,14.10
2012,10,16,15,32,14.10
2012,10,16,15,33,14.10
2012,10,16,15,34,14.00
2012,10,16,15,35,14.00
2012,10,16,15,36,13.90
2012,10,16,15,37,13.90
2012,10,16,15,38,13.90
2012,10,16,15,39,13.90
2012,10,16,15,40,13.90
2012,10,16,15,41,13.90
2012,10,16,15,42,13.90
2012,10,16,15,43,13.80
2012,10,16,15,44,13.80
2012,10,16,15,45,13.80
2012,10,16,15,46,13.80
2012,10,16,15,47,13.80
2012,10,16,15,48,13.70
2012,10,16,15,49,13.70
2012,10,16,15,50,13.70
2012,10,16,15,51,13.70
2012,10,16,15,52,13.70
2012,10,16,15,53,13.70
2012,10,16,15,54,13.70
2012,10,16,15,55,13.70
2012,10,16,15,56,13.70
2012,10,16,15,57,13.70
2012,10,16,15,58,13.80
2012,10,16,15,59,13.80
2012,10,16,16,00,13.80
2012,10,16,16,01,13.80
2012,10,16,16,02,13.80
2012,10,16,16,03,13.70
2012,10,16,16,04,13.70
2012,10,16,16,05,13.70
2012,10,16,16,06,13.70
2012,10,16,16,07,13.80
2012,10,16,16,08,13.80
2012,10,16,16,09,13.80
2012,10,16,16,10,13.80
2012,10,16,16,11,13.70
2012,10,16,16,12,13.70
2012,10,16,16,13,13.70
2012,10,16,16,14,13.70
2012,10,16,16,15,13.70
2012,10,16,16,16,13.70
2012,10,16,16,17,13.70
2012,10,16,16,18,13.70
2012,10,16,16,19,13.60
2012,10,16,16,20,13.50
2012,10,16,16,21,13.40
2012,10,16,16,22,13.30
2012,10,16,16,23,13.30
2012,10,16,16,24,13.20
2012,10,16,16,25,13.10
2012,10,16,16,26,13.10
2012,10,16,16,27,13.10
2012,10,16,16,28,13.10
2012,10,16,16,29,13.00
2012,10,16,16,30,13.00
2012,10,16,16,31,13.00
2012,10,16,16,32,12.90
2012,10,16,16,33,12.90
2012,10,16,16,34,12.90
2012,10,16,16,35,12.80
2012,10,16,16,36,12.80
2012,10,16,16,37,12.80
2012,10,16,16,38,12.70
2012,10,16,16,39,12.70
2012,10,16,16,40,12.70
2012,10,16,16,41,12.60
2012,10,16,16,42,12.60
2012,10,16,16,43,12.50
2012,10,16,16,44,12.50
2012,10,16,16,45,12.50
2012,10,16,16,46,12.50
2012,10,16,16,47,12.50
2012,10,16,16,48,12.50
2012,10,16,16,49,12.50
2012,10,16,16,50,12.50
2012,10,16,16,51,12.40
2012,10,16,16,52,12.40
2012,10,16,16,53,12.40
2012,10,16,16,54,12.40
2012,10,16,16,55,12.40
2012,10,16,16,56,12.40
2012,10,16,16,57,12.40
2012,10,16,16,58,12.40
2012,10,16,16,59,12.40
2012,10,16,17,00,12.40
2012,10,16,17,01,12.40
2012,10,16,17,02,12.40
2012,10,16,17,03,12.40
2012,10,16,17,04,12.40
2012,10,16,17,05,12.40
2012,10,16,17,06,12.40
2012,10,16,17,07,12.40
2012,10,16,17,08,12.40
2012,10,16,17,09,12.40
2012,10,16,17,10,12.40
2012,10,16,17,11,12.40
2012,10,16,17,12,12.40
2012,10,16,17,13,12.30
2012,10,16,17,14,12.30
2012,10,16,17,15,12.30
2012,10,16,17,16,12.30
2012,10,16,17,17,12.30
2012,10,16,17,18,12.30
2012,10,16,17,19,12.30
2012,10,16,17,20,12.30
2012,10,16,17,21,12.30
2012,10,16,17,22,12.30
2012,10,16,17,23,12.30
2012,10,16,17,24,12.30
2012,10,16,17,25,12.30
2012,10,16,17,26,12.20
2012,10,16,17,27,12.20
2012,10,16,17,28,12.10
2012,10,16,17,29,12.10
2012,10,16,17,30,12.10
2012,10,16,17,31,12.10
2012,10,16,17,32,12.10
2012,10,16,17,33,12.10
2012,10,16,17,34,12.00
2012,10,16,17,35,12.00
2012,10,16,17,36,12.00
2012,10,16,17,37,12.00
2012,10,16,17,38,11.90
2012,10,16,17,39,11.90
2012,10,16,17,40,11.90
2012,10,16,17,41,11.90
2012,10,16,17,42,11.90
2012,10,16,17,43,11.80
2012,10,16,17,44,11.80
2012,10,16,17,45,11.80
2012,10,16,17,46,11.80
2012,10,16,17,47,11.80
2012,10,16,17,48,11.80
2012,10,16,17,49,11.80
2012,10,16,17,50,11.80
2012,10,16,17,51,11.70
2012,10,16,17,52,11.70
2012,10,16,17,53,11.70
2012,10,16,17,54,11.60
2012,10,16,17,55,11.60
2012,10,16,17,56,11.60
2012,10,16,17,57,11.60
2012,10,16,17,58,11.60
2012,10,16,17,59,11.60
2012,10,16,18,00,11.60
2012,10,16,18,01,11.60
2012,10,16,18,02,11.60
2012,10,16,18,03,11.40
2012,10,16,18,04,11.40
2012,10,16,18,05,11.40
2012,10,16,18,06,11.40
2012,10,16,18,07,11.40
2012,10,16,18,08,11.40
2012,10,16,18,09,11.40
2012,10,16,18,10,11.40
2012,10,16,18,11,11.40
2012,10,16,18,12,11.30
2012,10,16,18,13,11.30
2012,10,16,18,14,11.30
2012,10,16,18,15,11.30
2012,10,16,18,16,11.30
2012,10,16,18,17,11.20
2012,10,16,18,18,11.20
2012,10,16,18,19,11.20
2012,10,16,18,20,11.10
2012,10,16,18,21,11.10
2012,10,16,18,22,11.10
2012,10,16,18,23,11.10
2012,10,16,18,24,11.10
2012,10,16,18,25,11.10
2012,10,16,18,26,11.10
2012,10,16,18,27,11.00
2012,10,16,18,28,10.90
2012,10,16,18,29,10.90
2012,10,16,18,30,10.90
2012,10,16,18,31,10.90
2012,10,16,18,32,10.90
2012,10,16,18,33,10.90
2012,10,16,18,34,10.90
2012,10,16,18,35,10.80
2012,10,16,18,36,10.80
2012,10,16,18,37,10.80
2012,10,16,18,38,10.80
2012,10,16,18,39,10.80
2012,10,16,18,40,10.70
2012,10,16,18,41,10.70
2012,10,16,18,42,10.70
2012,10,16,18,43,10.70
2012,10,16,18,44,10.70
2012,10,16,18,45,10.60
2012,10,16,18,46,10.60
2012,10,16,18,47,10.60
2012,10,16,18,48,10.60
2012,10,16,18,49,10.60
2012,10,16,18,50,10.60
2012,10,16,18,51,10.60
2012,10,16,18,52,10.60
2012,10,16,18,53,10.60
2012,10,16,18,54,10.60
2012,10,16,18,55,10.50
2012,10,16,18,56,10.40
2012,10,16,18,57,10.40
2012,10,16,18,58,10.40
2012,10,16,18,59,10.40
2012,10,16,19,00,10.40
2012,10,16,19,01,10.40
2012,10,16,19,02,10.40
2012,10,16,19,03,10.40
2012,10,16,19,04,10.40
2012,10,16,19,05,10.40
2012,10,16,19,06,10.40
2012,10,16,19,07,10.40
2012,10,16,19,08,10.40
2012,10,16,19,09,10.40
2012,10,16,19,10,10.40
2012,10,16,19,11,10.40
2012,10,16,19,12,10.40
2012,10,16,19,13,10.40
2012,10,16,19,14,10.40
2012,10,16,19,15,10.40
2012,10,16,19,16,10.40
2012,10,16,19,17,10.40
2012,10,16,19,18,10.30
2012,10,16,19,19,10.30
2012,10,16,19,20,10.30
2012,10,16,19,21,10.40
2012,10,16,19,22,10.40
2012,10,16,19,23,10.40
2012,10,16,19,24,10.40
2012,10,16,19,25,10.40
2012,10,16,19,26,10.40
2012,10,16,19,27,10.40
2012,10,16,19,28,10.40
2012,10,16,19,29,10.40
2012,10,16,19,30,10.40
2012,10,16,19,31,10.40
2012,10,16,19,32,10.40
2012,10,16,19,33,10.40
2012,10,16,19,34,10.40
2012,10,16,19,35,10.40
2012,10,16,19,36,10.40
2012,10,16,19,37,10.40
2012,10,16,19,38,10.40
2012,10,16,19,39,10.40
2012,10,16,19,40,10.40
2012,10,16,19,41,10.40
2012,10,16,19,42,10.40
2012,10,16,19,43,10.40
2012,10,16,19,44,10.40
2012,10,16,19,45,10.40
2012,10,16,19,46,10.40
2012,10,16,19,47,10.40
2012,10,16,19,48,10.40
2012,10,16,19,49,10.40
2012,10,16,19,50,10.40
2012,10,16,19,51,10.40
2012,10,16,19,52,10.40
2012,10,16,19,53,10.40
2012,10,16,19,54,10.40
2012,10,16,19,55,10.40
2012,10,16,19,56,10.40
2012,10,16,19,57,10.40
2012,10,16,19,58,10.40
2012,10,16,19,59,10.30
2012,10,16,20,00,10.30
2012,10,16,20,01,10.30
2012,10,16,20,02,10.30
2012,10,16,20,03,10.30
2012,10,16,20,04,10.30
2012,10,16,20,05,10.30
2012,10,16,20,06,10.30
2012,10,16,20,07,10.30
2012,10,16,20,08,10.30
2012,10,16,20,09,10.20
2012,10,16,20,10,10.20
2012,10,16,20,11,10.20
2012,10,16,20,12,10.20
2012,10,16,20,13,10.20
2012,10,16,20,14,10.20
2012,10,16,20,15,10.20
2012,10,16,20,16,10.20
2012,10,16,20,17,10.10
2012,10,16,20,18,10.10
2012,10,16,20,19,10.10
2012,10,16,20,20,10.10
2012,10,16,20,21,10.10
2012,10,16,20,22,10.10
2012,10,16,20,23,10.10
2012,10,16,20,24,10.10
2012,10,16,20,25,10.10
2012,10,16,20,26,10.10
2012,10,16,20,27,10.10
2012,10,16,20,28,10.10
2012,10,16,20,29,10.10
2012,10,16,20,30,10.10
2012,10,16,20,31,10.10
2012,10,16,20,32,10.10
2012,10,16,20,33,10.10
2012,10,16,20,34,10.10
2012,10,16,20,35,10.10
2012,10,16,20,36,10.10
2012,10,16,20,37,10.10
2012,10,16,20,38,10.10
2012,10,16,20,39,10.10
2012,10,16,20,40,10.10
2012,10,16,20,41,10.10
2012,10,16,20,42,10.10
2012,10,16,20,43,10.10
2012,10,16,20,44,10.10
2012,10,16,20,45,10.10
2012,10,16,20,46,10.10
2012,10,16,20,47,10.10
2012,10,16,20,48,10.10
2012,10,16,20,49,10.10
2012,10,16,20,50,10.10
2012,10,16,20,51,10.10
2012,10,16,20,52,10.10
2012,10,16,20,53,10.00
2012,10,16,20,54,10.00
2012,10,16,20,55,9.90
2012,10,16,20,56,9.90
2012,10,16,20,57,9.90
2012,10,16,20,58,9.90
2012,10,16,20,59,9.90
2012,10,16,21,00,9.90
2012,10,16,21,01,9.90
2012,10,16,21,02,9.90
2012,10,16,21,03,9.90
2012,10,16,21,04,9.90
2012,10,16,21,05,9.90
2012,10,16,21,06,9.90
2012,10,16,21,07,9.90
2012,10,16,21,08,9.90
2012,10,16,21,09,9.90
2012,10,16,21,10,9.90
2012,10,16,21,11,9.90
2012,10,16,21,12,9.90
2012,10,16,21,13,9.90
2012,10,16,21,14,9.90
2012,10,16,21,15,9.90
2012,10,16,21,16,9.90
2012,10,16,21,17,9.90
2012,10,16,21,18,9.90
2012,10,16,21,19,9.90
2012,10,16,21,20,9.90
2012,10,16,21,21,9.90
2012,10,16,21,22,9.90
2012,10,16,21,23,9.90
2012,10,16,21,24,9.90
2012,10,16,21,25,9.90
2012,10,16,21,26,9.90
2012,10,16,21,27,9.90
2012,10,16,21,28,9.90
2012,10,16,21,29,9.90
2012,10,16,21,30,9.90
2012,10,16,21,31,9.90
2012,10,16,21,32,9.90
2012,10,16,21,33,9.90
2012,10,16,21,34,9.90
2012,10,16,21,35,9.90
2012,10,16,21,36,9.90
2012,10,16,21,37,9.90
2012,10,16,21,38,9.90
2012,10,16,21,39,9.80
2012,10,16,21,40,9.80
2012,10,16,21,41,9.80
2012,10,16,21,42,9.80
2012,10,16,21,43,9.80
2012,10,16,21,44,9.80
2012,10,16,21,45,9.70
2012,10,16,21,46,9.70
2012,10,16,21,47,9.70
2012,10,16,21,48,9.70
2012,10,16,21,49,9.70
2012,10,16,21,50,9.70
2012,10,16,21,51,9.70
2012,10,16,21,52,9.70
2012,10,16,21,53,9.70
2012,10,16,21,54,9.70
2012,10,16,21,55,9.70
2012,10,16,21,56,9.70
2012,10,16,21,57,9.70
2012,10,16,21,58,9.70
2012,10,16,21,59,9.70
2012,10,16,22,00,9.70
2012,10,16,22,01,9.70
2012,10,16,22,02,9.70
2012,10,16,22,03,9.70
2012,10,16,22,04,9.70
2012,10,16,22,05,9.70
2012,10,16,22,06,9.70
2012,10,16,22,07,9.70
2012,10,16,22,08,9.70
2012,10,16,22,09,9.70
2012,10,16,22,10,9.70
2012,10,16,22,11,9.70
2012,10,16,22,12,9.70
2012,10,16,22,13,9.70
2012,10,16,22,14,9.70
2012,10,16,22,15,9.70
2012,10,16,22,16,9.70
2012,10,16,22,17,9.70
2012,10,16,22,18,9.70
2012,10,16,22,19,9.60
2012,10,16,22,20,9.60
2012,10,16,22,21,9.60
2012,10,16,22,22,9.60
2012,10,16,22,23,9.60
2012,10,16,22,24,9.60
2012,10,16,22,25,9.60
2012,10,16,22,26,9.60
2012,10,16,22,27,9.60
2012,10,16,22,28,9.60
2012,10,16,22,29,9.50
2012,10,16,22,30,9.50
2012,10,16,22,31,9.50
2012,10,16,22,32,9.40
2012,10,16,22,33,9.40
2012,10,16,22,34,9.30
2012,10,16,22,35,9.30
2012,10,16,22,36,9.30
2012,10,16,22,37,9.30
2012,10,16,22,38,9.30
2012,10,16,22,39,9.20
2012,10,16,22,40,9.20
2012,10,16,22,41,9.20
2012,10,16,22,42,9.20
2012,10,16,22,43,9.20
2012,10,16,22,44,9.20
2012,10,16,22,45,9.10
2012,10,16,22,46,9.10
2012,10,16,22,47,9.10
2012,10,16,22,48,9.00
2012,10,16,22,49,9.00
2012,10,16,22,50,9.00
2012,10,16,22,51,9.00
2012,10,16,22,52,9.00
2012,10,16,22,53,9.00
2012,10,16,22,54,9.00
2012,10,16,22,55,8.90
2012,10,16,22,56,8.90
2012,10,16,22,57,8.90
2012,10,16,22,58,8.80
2012,10,16,22,59,8.80
2012,10,16,23,00,8.80
2012,10,16,23,01,8.80
2012,10,16,23,02,8.70
2012,10,16,23,03,8.70
2012,10,16,23,04,8.70
2012,10,16,23,05,8.70
2012,10,16,23,06,8.70
2012,10,16,23,07,8.70
2012,10,16,23,08,8.70
2012,10,16,23,09,8.70
2012,10,16,23,10,8.60
2012,10,16,23,11,8.60
2012,10,16,23,12,8.50
2012,10,16,23,13,8.50
2012,10,16,23,14,8.50
2012,10,16,23,15,8.50
2012,10,16,23,16,8.50
2012,10,16,23,17,8.50
2012,10,16,23,18,8.50
2012,10,16,23,19,8.50
2012,10,16,23,20,8.50
2012,10,16,23,21,8.50
2012,10,16,23,22,8.50
2012,10,16,23,23,8.50
2012,10,16,23,24,8.50
2012,10,16,23,25,8.60
2012,10,16,23,26,8.60
2012,10,16,23,27,8.70
2012,10,16,23,28,8.70
2012,10,16,23,29,8.70
2012,10,16,23,30,8.70
2012,10,16,23,31,8.70
2012,10,16,23,32,8.70
2012,10,16,23,33,8.70
2012,10,16,23,34,8.70
2012,10,16,23,35,8.70
2012,10,16,23,36,8.70
2012,10,16,23,37,8.70
2012,10,16,23,38,8.70
2012,10,16,23,39,8.70
2012,10,16,23,40,8.70
2012,10,16,23,41,8.80
2012,10,16,23,42,8.80
2012,10,16,23,43,8.80
2012,10,16,23,44,8.90
2012,10,16,23,45,8.90
2012,10,16,23,46,8.90
2012,10,16,23,47,8.90
2012,10,16,23,48,8.90
2012,10,16,23,49,9.00
2012,10,16,23,50,9.00
2012,10,16,23,51,9.00
2012,10,16,23,52,9.00
2012,10,16,23,53,9.00
2012,10,16,23,54,9.00
2012,10,16,23,55,8.90
2012,10,16,23,56,8.90
2012,10,16,23,57,8.90
2012,10,16,23,58,8.80
2012,10,16,23,59,8.80
